RADUGA 31 1 23010U 94012A 21018.92167649 -.00000345 00000-0 00000+0 0 9990 2 23010 14.8425 3.7984 0005739 43.2721 147.4186 1.00292184 98539 SL-12 R/B(2) 1 23013U 94012D 21019.15681956 -.00000120 00000-0 00000+0 0 9992 2 23013 15.4797 6.1076 0036629 68.6908 304.6425 0.98108647 96458